Location: ?????????
(41.2393°N, 22.9479°E)
Time: 23:30:05
(UTC+00:00)

SJ-12 - Pass Details

Date: 17 November 2025
Orbit: 517 x 528 km, 97.8° (Epoch: 09 December)

Event Time Altitude Azimuth Distance (km) Brightness Sun altitude
Rises 15:39:56 0° 150° (SSE) 2,643 7.2 -6.5°
Reaches altitude 10° 15:42:06 10° 143° (SE) 1,757 6.2 -6.9°
Maximum altitude 15:45:40 41° 73° (ENE) 762 4.1 -7.5°
Drops below altitude 10° 15:49:16 10° 2° (N) 1,763 6.2 -8.2°
Sets 15:51:26 0° 355° (N) 2,654 7.2 -8.6°
